Tracking 25964 objects as of 11-Aug-2022
HD Live streaming from Space Station
objects crossing your sky now

SKYNET 2B

Track SKYNET 2B now!
SKYNET 2B is classified as:


NORAD ID: 7547
Int'l Code: 1974-094A
Perigee: 35,733.9 km
Apogee: 35,786.2 km
Inclination: 7.1 °
Period: 1,434.4 minutes
Semi major axis: 42131 km
RCS: 3.166 m2 (large)
Launch date: November 23, 1974
Source: United Kingdom (UK)
Launch site: AIR FORCE EASTERN TEST RANGE (AFETR)
aabbcc
Your satellite tracking list
Your tracking list is empty




NASA's NSSDC Master Catalog

Two Line Element Set (TLE):
1 07547U 74094A   22222.76416155 -.00000172  00000-0  00000-0 0  9993
2 07547   7.0901 295.4934 0006202 173.9915 204.9430  1.00392044110662
Source of the keplerian elements: AFSPC